Regional Weather Roundup
Issued by NWS

Home | Current Version | Previous Version | Text Only | Print | Product List | Glossary Off
Versions: 1 2 3 4 5 6 7 8 9 10 11 12 13 14 15 16 17 18 19 20 21 22 23 24 25 26 27

000
ASUS45 KBOU 241207
RWRCO

WEATHER ROUNDUP FOR COLORADO
NATIONAL WEATHER SERVICE DENVER/BOULDER CO
500 AM MST FRI FEB 24 2017

NOTE: "FAIR" INDICATES FEW OR NO CLOUDS BELOW 12000 FEET WITH NO
SIGNIFICANT WEATHER AND/OR OBSTRUCTIONS TO VISIBILITY.

COZ001>005-013-030-031-241300-
...NORTHWEST COLORADO...

CITY           SKY/WX    TMP DP  RH WIND       PRES   REMARKS
CRAIG          CLOUDY    17  10  74 W6        29.81R WCI   9
HAYDEN         FAIR      16  10  79 NW5       29.78R WCI   9
MEEKER         LGT SNOW  20  17  88 MISG      29.79R FOG
MOUNT WERNER   NOT AVBL
STEAMBOAT SPGS CLOUDY    15  13  90 SW5       29.76R WCI   7
WALDEN         NOT AVBL
$$

COZ006>008-011-241300-
...WEST CENTRAL VALLEYS...

CITY           SKY/WX    TMP DP  RH WIND       PRES   REMARKS
GRAND JUNCTION MOCLDY    23  20  88 S3        29.85R
MONTROSE       FAIR      21  14  74 CALM      29.85R
EAGLE          CLOUDY    17  14  88 CALM      29.79S
RIFLE          FLURRIES  24  19  81 W6        29.83R WCI  17
DELTA          FAIR      23  15  72 CALM      29.84S
NUCLA          CLOUDY    27  18  69 E6        29.86S WCI  20
$$

COZ017>023-064>068-241300-
...SOUTHWEST COLORADO...

CITY           SKY/WX    TMP DP  RH WIND       PRES   REMARKS
DURANGO        LGT SNOW  20  13  74 W7        29.82R WCI  11
CORTEZ         CLOUDY    21  19  92 NE3       29.85R
PAGOSA SPRINGS CLOUDY    14   4  65 CALM      29.78S
TELLURIDE      LGT SNOW  12  10  90 SE3       29.76S
WOLF CREEK PAS LGT SNOW   0  -2  92 SW13G20   29.67F WCI -18
$$

COZ009-010-012-014-032>034-037-058>063-241300-
...CENTRAL COLORADO...

CITY           SKY/WX    TMP DP  RH WIND       PRES   REMARKS
ASPEN          CLOUDY    13   7  77 S5        29.73R WCI   5
BUENA VISTA    FAIR      12   0  59 NW10G16   29.72R WCI  -1
COPPER MTN     LGT SNOW   5  -4  66 MISG      29.57R
BERTHOUD PASS  CLOUDY    -4 -15  59 NW20G31   29.52R HAZE    WCI -27
COTTONWOOD PAS CLOUDY    14   0  52 W18G29    29.65S WCI  -3
GUNNISON       FAIR       4  -3  73 E5        29.78R WCI  -5
KREMMLING      LGT SNOW  21  18  86 CALM      29.73S
LEADVILLE      MOCLDY     0  -5  79 NE3       29.63S
MONARCH PASS   CLOUDY     1  -4  78 W24       29.68S WCI -22
SALIDA         FAIR      18   5  57 NW6       29.80S WCI   9
SUNLIGHT       NOT AVBL
WILKERSON PASS FAIR       3  -6  66 W8        29.61R WCI -10
$$

COZ069>075-241300-
...SAN LUIS VALLEY/SANGRE DE CRISTO MOUNTAINS...

CITY           SKY/WX    TMP DP  RH WIND       PRES   REMARKS
ALAMOSA        FAIR      13   6  74 NE5       29.75R WCI   5
LA VETA PASS   CLOUDY     7   0  72 SW9G16    29.67S WCI  -7
SAGUACHE       FAIR      10   1  67 NW13      29.76R WCI  -5
$$

COZ035-036-038>040-241300-
...NORTHERN COLORADO FRONT RANGE...

CITY           SKY/WX    TMP DP  RH WIND       PRES   REMARKS
DENVER INTL AP FLURRIES  18  14  84 N9        29.85R WCI   7
DMNS CITY PARK   N/A     19  15  84 MISG      29.86R
AURORA         LGT SNOW  17  16  93 N7        29.84R FOG     WCI   8
FRONT RANGE AP FLURRIES  21  18  86 N7        29.85R WCI  13
ERIE MUNI ARPT FLURRIES  20  17  87 CALM      29.88R
BOULDER MUN AP FLURRIES  19  18  93 CALM      29.86S
CENTENNIAL     LGT SNOW  17  14  88 NW6       29.82S FOG     WCI   9
BROOMFIELD     FLURRIES  19  18  93 N6        29.85S WCI  11
FORT COLLINS   FLURRIES  19  14  81 NE6       29.88S WCI  11
LONGMONT       FLURRIES  23  17  77 NE6       29.89S WCI  15
$$

COZ041-046-047-076>085-087-088-241300-
...PIKES PEAK/PALMER DIVIDE AND SOUTHERN FOOTHILLS...

CITY           SKY/WX    TMP DP  RH WIND       PRES   REMARKS
COLO. SPRINGS  FAIR      14   5  67 NW5       29.79R WCI   6
A. F. ACADEMY  CLEAR     11   6  77 NW9       29.76R WCI  -1
SCHRIEVER AFB  FAIR      12   6  77 N9        29.79R WCI  -1
ELLICOTT       FAIR     N/A N/A N/A N12         N/A
FALCON         FAIR      11   6  77 N16G22    29.75S WCI  -5
FORT CARSON    FLURRIES  17   9  71 NW10      29.80R WCI   5
LIMON          CLOUDY    16  14  92 N16       29.82R WCI   1
MONUMENT HILL  LGT SNOW  10   7  85 NW8       29.77S WCI  -1
TRINIDAD       CLOUDY    19  13  77 E9        29.81R WCI   8
$$

COZ042>045-048>051-090-091-241300-
...NORTHEAST COLORADO...

CITY           SKY/WX    TMP DP  RH WIND       PRES   REMARKS
GREELEY ARPT   FLURRIES  20  15  81 NE6       29.91R WCI  12
AKRON          CLOUDY    17  14  88 N9        29.85S FOG     WCI   6
BURLINGTON     CLOUDY    21  17  84 N17G26    29.83R WCI   7
WRAY           NOT AVBL
STERLING       LGT SNOW  21  19  93 N10       29.89R WCI  10
HOLYOKE        FLURRIES  25  21  86 N12       29.89R WCI  14
FORT MORGAN    CLOUDY    19  16  89 N6        29.89R WCI  11
$$

COZ086-089-092>099-241300-
...SOUTHEAST COLORADO...

CITY           SKY/WX    TMP DP  RH WIND       PRES   REMARKS
PUEBLO         FAIR      15   7  70 E5        29.87R WCI   8
LA JUNTA       CLOUDY    23  13  65 NW6       29.88R WCI  16
LAMAR          CLOUDY    25  13  60 N10       29.88R WCI  15
SPRINGFIELD      N/A     21  14  74 NW15      29.84R WCI   8
$$




USA.gov is the U.S. government's official web portal to all federal, state and local government web resources and services.